User: anonymous   Login
Location: Aurora Center
(43.5271°N, 98.5894°W)
Time: 07:00:43
(UTC-05:00)
Language:

A-11 Canister half - Orbit

View from above orbital plane
View from above orbital plane
View from above satellite
View from above satellite

Ground track
Ground track

The orbit data is extracted from the following two-line orbital elements,

1 00051U 60009C   24200.78477547 -.00000077  00000-0  63154-4 0  9996
2 00051  47.2147  50.3947 0106361 280.3305  78.5508 12.18329732846020
Epoch (UTC): 18 July 2024 18:50:04
Eccentricity: 0.0106361
inclination: 47.2147°
perigee height: 1515 km
apogee height: 1684 km
right ascension of ascending node: 50.3947°
argument of perigee: 280.3305°
revolutions per day: 12.18329732
mean anomaly at epoch: 78.5508°
orbit number at epoch: 84602

The dashed part of the orbit path shows where the satellite is in the earth's shadow,  

DLR